Погода в Сасебо

Япония     33°10′17″N   129°43′04″E
темп.,
°C
ветер,
м/с
пор.,
м/с
влажн.,
%
обл.,
%
осадки,
мм/ч
давл.,
гПа
погр.,
м
11 мая, вт
вт1100:00+15всв119397 0.0 101312
03:00+15в1191100 0.0 101217
06:00+16всв2384100 0.0 101281
09:00+18всв2379100 0.0 1013186
12:00+23всв2266100 0.0 1012537
15:00+20св2377100 0.7 1011337
18:00+19ююв1190100 0.9 101150
21:00+18ююв2294100 1.0 101229
12 мая, ср
ср1200:00+17в0197100 0.6 101215
03:00+17в2398100 1.4 101171
06:00+17в3498100 0.6 1011145
09:00+17в2796100 1.6 1011387
12:00+18в3890100 0.9 1011591
15:00+16в21197100 5.9 1011619
18:00+16вюв31094100 4.3 1011543
21:00+16всв229598 4.8 101278
13 мая, чт
чт1300:00+16в2295100 0.6 101256
03:00+16в2397100 3.3 1011116
06:00+16в2397100 0.5 101295
09:00+18вюв2391100 0.6 1012175
12:00+19вюв1287100 0.1 1012251
15:00+21всв1281100 0.1 1010267
18:00+20вюв118799 0.0 101119
21:00+18юв119296 0.0 101211
14 мая, пт
пт1400:00+18юв1190100 0.0 101213
03:00+18вюв1189100 0.1 101127
06:00+18в2291100 0.0 101251
09:00+19вюв2292100 0.8 1013141
12:00+19вюв2391100 0.2 1012182
15:00+21юв2489100 0.4 1011335
18:00+20вюв2594100 0.1 1011216
21:00+19юв3793100 0.1 1012251
15 мая, сб
сб1500:00+19вюв2694100 0.0 1012192
03:00+19юв3694100 0.0 1011176
06:00+19юв3698100 0.7 1012227
09:00+19юв3799100 16.1 1011287
12:00+20ю41298100 9.5 1011820
15:00+21ю51396100 11.6 1010811
18:00+22ю6129492 0.3 1010848
21:00+22ю51397100 0.4 1010744